Location: Owatonna
(44.0840°N, 93.2260°W)
Time: 09:50:12
(UTC-05:00)

Daily predictions for brighter satellites

Satellite Brightness Start Highest point End
(mag) Time Altitude Azimuth Time Altitude Azimuth Time Altitude Azimuth
Spot 2 Rocket 3.6 20:35:45 10° SSE 20:40:52 87° WSW 20:45:59 10° NNW
Cosmos 1354 Rocket 4.1 20:37:44 10° NNW 20:43:04 87° ENE 20:48:19 10° SSE
Cosmos 2142 Rocket 4.5 20:37:16 10° S 20:43:20 70° E 20:49:29 10° NNE
GENESIS II 4.4 20:40:19 10° SSW 20:44:17 55° ESE 20:48:17 10° NE
ATLAS 5 CENTAUR R/B 2.8 20:41:17 10° NNW 20:47:02 52° NE 20:53:19 10° ESE
Cosmos 1408 2.5 20:44:45 10° N 20:48:27 70° E 20:52:05 10° SSE
Cosmos 2026 Rocket 4.0 20:47:07 10° N 20:53:23 78° E 20:59:30 10° SSE
SL-16 R/B 2.2 20:49:38 10° SSW 20:55:18 79° ESE 21:01:00 10° NNE
Meteor 1-29 3.6 20:52:17 10° NNE 20:55:31 34° E 20:58:41 10° SSE
Cosmos 1867 4.1 20:50:58 10° NNW 20:56:15 47° NE 21:01:17 11° ESE
CZ-2D R/B 3.9 20:53:10 10° S 20:57:01 60° W 21:00:53 10° NNW
Cosmos 1315 Rocket 4.5 20:54:25 10° NNW 20:58:10 36° W 21:01:50 10° SSW
Cosmos 1733 Rocket 3.1 20:54:52 10° N 20:59:19 65° E 21:03:44 10° SSE
Envisat 3.1 20:55:59 10° SSE 21:00:59 64° ENE 21:06:02 10° N
H-2A R/B 4.0 21:01:10 10° ENE 21:02:48 12° ENE 21:04:26 10° NE
USA 234 3.4 20:56:48 10° ESE 21:03:17 69° NE 21:09:47 10° NW
Spot 1 4.5 20:58:38 10° SSE 21:03:47 80° ENE 21:08:50 10° NNW
Abrixas rocket 3.5 21:05:05 10° W 21:08:13 39° N 21:11:20 10° ENE
Cosmos 1933 3.4 21:04:49 10° S 21:08:45 56° E 21:12:43 10° NNE
Cosmos 1862 Rocket 3.6 21:05:32 10° S 21:09:56 66° E 21:14:24 10° NNE
Helios 1A 3.1 21:07:23 10° SSE 21:11:37 83° WSW 21:15:55 10° NNW
Cosmos 2278 Rocket 4.3 21:10:47 10° NNE 21:13:28 13° NE 21:16:09 10° ENE
Cosmos 1844 Rocket 4.0 21:10:50 10° N 21:15:27 26° NE 21:19:16 13° ESE
USA 186 3.1 21:13:22 10° SSW 21:15:59 35° W 21:18:47 10° NNW
SJ-11-01 4.2 21:14:15 10° SSE 21:18:55 82° ENE 21:23:36 10° NNW
CZ-4B DEB 2.6 21:16:51 10° S 21:19:53 83° W 21:22:56 10° NNW
YAOGAN 6 2.9 21:21:30 17° SE 21:24:04 49° ENE 21:27:34 10° N
Cosmos 1862 3.7 21:20:03 10° NNW 21:24:04 67° W 21:28:05 10° S
ERS-1 Rocket 3.2 21:22:04 15° SE 21:26:07 53° ENE 21:31:01 10° N
Milstar 3 4.4 21:22:01 10° WSW 21:27:38 20° SSW 21:31:41 12° SSE
Cosmos 1703 Rocket 4.0 21:27:00 14° SSE 21:30:31 41° E 21:34:40 10° NNE
SeaSat 1 3.7 21:27:56 16° E 21:30:59 29° NE 21:35:12 10° N
Cosmos 1782 4.4 21:36:14 18° E 21:36:25 18° E 21:39:13 10° NE
Cosmos 2219 Rocket 3.5 21:37:34 18° ESE 21:37:55 18° E 21:41:39 10° ENE
Meteor 2-10 Rocket 3.7 21:33:45 10° S 21:39:34 77° E 21:45:20 10° NNE
Meteor 1-26 Rocket 4.2 21:36:00 10° S 21:41:38 68° E 21:47:25 10° NNE
Cosmos 2266 Rocket 4.1 21:35:55 10° N 21:42:11 66° E 21:47:08 17° SSE
NOSS 3-1 (C) 4.3 21:42:31 22° ESE 21:43:29 23° ESE 21:48:14 10° ENE
Cosmos 1939 Rocket 3.6 21:40:40 10° S 21:44:37 52° W 21:48:32 10° NNW
USA 229 DEB 3.7 21:41:50 10° SSW 21:48:32 63° ESE 21:55:22 10° NE
USA 229 3.7 21:41:57 10° SSW 21:48:38 62° ESE 21:55:29 10° NE
YAOGAN 11 4.3 21:47:26 28° SE 21:49:31 53° ENE 21:53:45 10° N
SPOT 1/Viking Rocket 4.4 21:47:40 24° ESE 21:50:02 36° ENE 21:54:45 10° N
Cosmos 2221 Rocket 3.8 21:48:15 24° SSE 21:50:36 50° E 21:54:54 10° NNE
SPOT 5 3.1 21:50:39 28° SE 21:52:51 49° ENE 21:57:17 10° N
Cosmos 1777 Rocket 4.1 21:50:17 10° NNW 21:55:31 60° ENE 21:58:02 30° SE
Helios 1B rocket 4.1 21:52:29 10° N 21:56:15 35° WNW 22:00:00 10° SW
Lacrosse 4 Rocket 4.1 21:54:46 10° WNW 21:57:12 15° WSW 21:59:38 10° SW
Cosmos 2263 Rocket 3.4 21:52:26 10° NW 21:57:33 38° WSW 22:02:37 10° S
Atlas Centaur 2 3.7 21:57:15 10° SW 22:03:06 28° S 22:05:12 25° SSE
Cosmos 1633 4.2 22:02:10 10° NNE 22:04:45 21° ENE 22:04:45 21° ENE
Cosmos 2237 4.1 22:01:21 10° SSW 22:07:03 73° ESE 22:12:46 10° NNE
SL-08 RB Rocket 3.9 22:07:29 38° SE 22:08:55 53° ENE 22:13:21 10° N
Cosmos 2322 Rocket 4.2 22:04:48 10° WSW 22:09:39 29° NW 22:14:34 10° N
USA 267 4.5 22:04:39 10° NE 22:10:44 43° NNW 22:16:49 10° W
H-2A R/B 3.2 22:14:15 27° ENE 22:14:45 28° ENE 22:18:27 10° N
MOS 1-B Rocket 3.8 22:12:56 31° SSE 22:15:51 75° ENE 22:21:27 10° N
COSMOS 2428 2.6 22:10:54 11° SSW 22:16:19 66° ESE 22:21:59 10° NNE
Cosmos 2360 Rocket 2.8 22:12:02 10° SW 22:17:37 58° WNW 22:23:14 10° NNE
CZ-4C R/B 3.5 22:13:44 10° NNW 22:20:22 44° NE 22:24:27 25° E
MetOp-B 4.3 22:20:20 28° S 22:23:11 71° WSW 22:28:34 10° NNW
Landsat 7 4.2 22:25:08 42° ESE 22:25:59 47° ENE 22:30:33 10° N
Meteor 1-25 Rocket 4.3 22:22:15 10° NNW 22:27:49 74° W 22:30:30 32° S
Cosmos 1844 3.7 22:22:28 10° NNW 22:28:08 67° ENE 22:29:52 44° SE
Cosmos 1606 2.9 22:31:23 56° ENE 22:31:23 56° ENE 22:34:41 10° NNE
ATLAS 5 CENTAUR R/B 3.6 22:26:15 10° NW 22:31:41 34° WSW 22:35:10 21° SSW
Cosmos 1782 Rocket 4.4 22:29:39 10° NNW 22:33:51 47° W 22:35:40 29° SSW
SL-16 R/B 4.4 22:36:36 10° ENE 22:36:36 10° ENE 22:36:38 10° ENE
USA 245 4.3 22:36:56 34° S 22:39:19 65° WSW 22:44:09 10° NNW
Meteor 1-20 Rocket 4.4 22:34:17 10° NNW 22:39:49 66° W 22:42:15 34° SSW
ARGOS 3.4 22:37:52 36° S 22:40:02 65° WSW 22:45:24 10° NNW
Terra 2.2 22:40:44 45° E 22:41:06 46° ENE 22:45:40 10° N
H-2A R/B 1.8 22:40:23 56° SSE 22:41:27 83° ENE 22:46:24 10° NNW
Abrixas rocket 3.4 22:42:14 10° WNW 22:44:58 42° NNW 22:44:58 42° NNW
Okean 2 Rocket 3.8 22:41:47 10° NNW 22:46:09 49° W 22:47:26 37° SW
USA 234 4.1 22:44:02 29° S 22:46:32 38° SW 22:52:35 10° WNW
Okean 1-7 4.1 22:45:28 23° SW 22:47:51 43° WNW 22:52:04 10° N
S3M 4.1 22:47:55 49° SE 22:49:05 57° E 22:55:09 10° NNE
DMSP B5D2-2 4.1 22:44:49 10° NNE 22:50:02 59° E 22:50:21 58° ESE
Cosmos 2333 4.4 22:50:09 14° SSW 22:55:07 71° WNW 23:00:55 10° NNE
Cosmos 2237 Rocket 2.6 22:55:49 45° E 22:55:49 45° E 23:00:42 10° NE
Meteor 2-6 Rocket 4.3 22:53:26 41° SSW 22:55:42 86° W 23:01:42 10° N
Cosmos 2333 Rocket 2.2 22:55:18 59° SSE 22:55:59 64° ESE 23:01:43 10° NNE
Cosmos 2278 Rocket 2.2 22:53:04 10° NNW 22:58:44 65° ENE 22:59:34 57° ESE
Cosmos 1570 Rocket 3.9 22:57:58 62° S 22:58:53 85° ESE 23:04:12 10° NNE
Cosmos 1844 Rocket 3.1 22:54:15 10° NNW 22:59:40 54° WSW 23:00:56 44° SSW
Cosmos 2084 3.8 23:02:07 10° NW 23:05:10 55° NNW 23:05:10 55° NNW
Meteor 2-11 Rocket 4.4 23:06:13 59° SE 23:06:52 63° E 23:12:53 10° NNE
CZ-4 R/B 4.4 23:02:38 10° NNE 23:06:24 44° ENE 23:06:24 44° ENE
Cosmos 2208 Rocket 3.9 23:07:20 64° SSW 23:08:12 88° WNW 23:13:33 10° NNE
SeaSat 1 3.0 23:07:43 43° SW 23:08:18 46° WSW 23:13:04 10° NW
Cosmos 1937 Rocket 4.1 23:04:11 10° N 23:09:10 42° ENE 23:09:20 41° ENE
deb Chang Zheng 4 3.9 23:07:54 10° NNE 23:11:31 58° NNE 23:11:31 58° NNE
Cosmos 1782 4.2 23:11:50 32° W 23:12:31 34° WNW 23:16:12 10° N
Meteor 1-5 Rocket 4.3 23:14:38 10° N 23:20:15 61° ENE 23:20:26 60° E
Cosmos 2151 Rocket 4.4 23:16:04 10° NNW 23:20:18 43° W 23:20:21 43° W
Cosmos 1745 Rocket 3.9 23:14:33 10° N 23:20:55 88° W 23:22:00 64° S
Cosmos 2219 Rocket 2.4 23:19:11 39° SW 23:21:15 66° WNW 23:26:53 10° NNE
Cosmos 2150 Rocket 4.3 23:16:49 10° NNW 23:22:12 57° ENE 23:22:15 57° ENE
CARTOSAT-1 4.0 23:23:11 59° WNW 23:23:11 59° WNW 23:26:56 10° NNW
Cosmos 1346 Rocket 4.0 23:29:30 41° NNW 23:29:30 41° NNW 23:32:30 10° N
Cosmos 1898 Rocket 3.5 23:27:28 10° NNW 23:32:21 79° NNW 23:32:21 79° NNW
NOSS 3-1 (C) 3.7 23:29:42 22° SW 23:33:37 65° NW 23:40:11 10° NNE
Iridium 4 Rocket 3.8 23:29:30 10° N 23:32:40 49° NNW 23:32:40 49° NNW
Meteor 1-27 Rocket 4.1 23:35:39 51° WSW 23:36:39 60° WNW 23:42:11 10° N
Okean 1 Rocket 3.7 23:33:35 10° NNW 23:37:05 54° NNW 23:37:05 54° NNW
ASTEX 1 4.2 23:41:51 42° W 23:42:01 42° W 23:46:46 10° NNW
CZ-2C R/B 4.5 23:45:52 25° NE 23:45:52 25° NE 23:49:23 10° N
NOSS 0 Rocket 4.2 23:45:33 45° WSW 23:47:19 64° WNW 23:53:27 10° NNE
NOSS 3-1 (A) 3.6 23:47:49 43° WSW 23:49:46 68° NW 23:56:22 10° NE
H-2A R/B 3.7 23:51:23 27° WNW 23:51:23 27° WNW 23:54:29 10° NW
ATLAS 2AS CENTAUR R/B 3.6 23:52:17 38° E 23:52:17 38° E 23:58:30 10° NE
Cosmos 2297 3.7 23:48:02 10° NNW 23:53:26 77° NNE 23:53:26 77° NNE
Cosmos 2369 Rocket 4.2 23:50:17 10° N 23:54:03 18° NE 23:55:46 16° ENE
